Overview Statistics Trail Chart Weather Telemetry Raw packets
 

This is the latest recevied weather packets stored in our database for station/object W7BTL. If no packets are shown the sender has not sent any weather packets the latest 10 day(s).

<< 106 107 108 109 110 111 112 >>
Time Temp. Humidity Pressure Rain* Wind** Luminosity Snow
1787852839 32.22° C 58% 1012.1 hPa 0 mm - 595 W/m² -
1787852538 32.22° C 59% 1012.1 hPa 0 mm - 1018 W/m² -
1787852232 32.22° C 59% 1011.9 hPa 0 mm - 729 W/m² -
1787851927 32.22° C 59% 1012 hPa 0 mm - 572 W/m² -
1787851626 32.78° C 58% 1012 hPa 0 mm - 591 W/m² -
1787851321 32.22° C 60% 1011.8 hPa 0 mm - 667 W/m² -
1787851016 31.67° C 61% 1011.5 hPa 0 mm - 623 W/m² -
1787850713 31.11° C 63% 1011.4 hPa 0 mm - 716 W/m² -
1787850408 30.56° C 64% 1011.3 hPa 0 mm - 513 W/m² -
1787850103 31.11° C 61% 1011.5 hPa 0 mm - 696 W/m² -
1787849802 30.56° C 65% 1011.3 hPa 0 mm - 752 W/m² -
1787849497 30.56° C 63% 1011.4 hPa 0 mm - 702 W/m² -
1787849203 29.44° C 68% 1011.4 hPa 0 mm - 675 W/m² -
1787848895 28.89° C 70% 1011.5 hPa 0 mm - 447 W/m² -
1787848590 28.33° C 71% 1011.5 hPa 0 mm - 258 W/m² -
1787848290 28.33° C 72% 1011.6 hPa 0 mm - 277 W/m² -
1787847985 27.78° C 74% 1011.6 hPa 0 mm - 309 W/m² -
1787847684 27.78° C 74% 1011.7 hPa 0 mm - 309 W/m² -
1787847379 27.78° C 75% 1011.8 hPa 0 mm - 300 W/m² -
1787847075 27.78° C 76% 1011.6 hPa 0 mm - 201 W/m² -
1787846771 27.78° C 75% 1011.7 hPa 0 mm - 183 W/m² -
1787846466 28.33° C 75% 1011.7 hPa 0 mm - 188 W/m² -
1787846162 27.78° C 75% 1012.1 hPa 0 mm - 263 W/m² -
1787845857 27.78° C 77% 1012.2 hPa 0 mm - 250 W/m² -
1787845552 27.22° C 77% 1012 hPa 0 mm - 214 W/m² -

* Rain latest hour (hover to see other rain measurements)
** Current wind speed in m/s (hover to see current wind gust speed)